Home   Weather   Ålesund   Past weeks

Flag for Norway Past Weather in Ålesund, Norway — Yesterday and Last 2 Weeks

Now
46 °F

Cool.


Feels Like: 43 °F
Forecast: 44 / 56 °F
Wind: 7 mph from East

Location: Alesund / Vigra

Current Time: May 23, 2017 at 1:32:44 am

Latest Report: May 23, 2017 at 12:50 am


Visibility: N/A

Pressure: 30.04 "Hg

Humidity: 93%

Dew Point: 45 °F

Location of ÅlesundLocation

Past Weather in Ålesund — Graph

°F

Ålesund Temperature Yesterday

Maximum temperature yesterday: 54 °F (at 7:20 pm)
Minimum temperature yesterday: 45 °F (at 11:50 pm)
Average temperature yesterday: 49 °F

High & Low Weather Summary for the Past Weeks

 TemperatureHumidityPressure
High59 °F (May 16, 9:20 pm)100% (May 9, 12:50 am)30.45 "Hg (May 9, 12:50 am)
Low37 °F (May 7, 11:20 pm)43% (May 10, 2:20 pm)29.62 "Hg (May 10, 6:20 pm)
Average48 °F79%29.98 "Hg
* Reported May 7 11:20 pm — May 22 11:50 pm, Ålesund. Weather by CustomWeather, © 2017

Note: Actual official high and low records may vary slightly from our data, if they occured in-between our weather recording intervals... More about our weather records

Advertising

Ålesund Weather History for the Previous 24 Hours

Scroll right to see more
 ConditionsComfort  
Time TempWeatherWind HumidityBarometerVisibility
11:50 pm
Mon, May 22
45 °FQuite cool.9 mph100%30.04 "HgN/A
11:20 pm46 °FPassing clouds.7 mph93%30.04 "HgN/A
10:50 pm46 °FPassing clouds.7 mph93%30.07 "HgN/A
10:20 pm46 °FPassing clouds.8 mph93%30.07 "HgN/A
9:50 pm48 °FPassing clouds.7 mph87%30.07 "HgN/A
9:20 pm50 °FPassing clouds.6 mph82%30.07 "HgN/A
8:50 pm50 °FSunny.6 mph82%30.07 "Hg10 mi
8:20 pm50 °FPassing clouds.5 mph76%30.07 "HgN/A
7:50 pm52 °FPassing clouds.5 mph72%30.09 "HgN/A
7:20 pm54 °FScattered clouds.5 mph67%30.09 "HgN/A
6:50 pm52 °FScattered clouds.6 mph72%30.09 "HgN/A
6:20 pm52 °FPartly sunny.3 mph72%30.09 "HgN/A
5:50 pm52 °FPartly sunny.3 mph72%30.09 "HgN/A
5:20 pm52 °FPartly sunny.5 mph72%30.12 "HgN/A
4:50 pm52 °FBroken clouds.5 mph72%30.12 "HgN/A
4:20 pm52 °FBroken clouds.7 mph77%30.12 "HgN/A
3:50 pm52 °FBroken clouds.6 mph77%30.12 "HgN/A
3:20 pm50 °FPartly sunny.7 mph82%30.12 "HgN/A
2:50 pm52 °FBroken clouds.8 mph77%30.12 "HgN/A
2:20 pm52 °FBroken clouds.8 mph77%30.12 "HgN/A
1:50 pm50 °FPartly sunny.7 mph82%30.12 "HgN/A
1:20 pm50 °FBroken clouds.7 mph82%30.12 "HgN/A
12:50 pm50 °FBroken clouds.6 mph82%30.12 "HgN/A
12:20 pm50 °FBroken clouds.6 mph82%30.12 "HgN/A
11:50 am50 °FBroken clouds.7 mph82%30.12 "HgN/A
11:20 am50 °FBroken clouds.6 mph82%30.12 "HgN/A
10:50 am50 °FBroken clouds.6 mph82%30.12 "HgN/A
10:20 am48 °FBroken clouds.6 mph94%30.12 "HgN/A
9:50 am48 °FBroken clouds.6 mph87%30.12 "HgN/A
9:20 am48 °FBroken clouds.5 mph87%30.12 "HgN/A
8:50 am48 °FBroken clouds.5 mph87%30.12 "HgN/A
8:20 am48 °FBroken clouds.5 mph87%30.12 "HgN/A
7:50 am46 °FPartly sunny.3 mph93%30.12 "HgN/A
7:20 am46 °FPartly sunny.3 mph93%30.12 "HgN/A
6:50 am46 °FPartly sunny.5 mph93%30.12 "HgN/A
6:20 am46 °FPartly sunny.5 mph93%30.12 "HgN/A
5:50 am46 °FPartly sunny.6 mph93%30.12 "HgN/A
5:20 am46 °FMore clouds than sun.5 mph93%30.12 "HgN/A
4:50 am46 °FMore clouds than sun.3 mph93%30.12 "HgN/A
4:20 am46 °FOvercast.5 mph93%30.12 "HgN/A
3:50 am46 °FOvercast.2 mph93%30.12 "HgN/A
3:20 am46 °FMostly cloudy.2 mph93%30.12 "HgN/A
2:50 am46 °FMostly cloudy.3 mph93%30.12 "HgN/A
2:20 am46 °FOvercast.3 mph93%30.12 "HgN/A
1:50 am46 °FMostly cloudy.2 mph93%30.12 "HgN/A
1:20 am48 °FOvercast.3 mph87%30.12 "HgN/A
Weather by CustomWeather, © 2017

See weather overviewHow to use our weather pages